owner,sensor,date,latitude,longitude,vertical_datum,sea_water_speed,direction_of_sea_water_velocity,upward_sea_water_velocity,qcFlag
Anadarko,ioos:station:wmo:42373:1,2024-05-01T00:05:00Z,27.3539,-94.6254,79.0,18.7,83.0,-9999.0,'111111111,111111111,999999991'
Anadarko,ioos:station:wmo:42373:1,2024-05-01T00:25:00Z,27.3539,-94.6254,79.0,21.9,64.6,-9999.0,'111111111,111111111,999999991'
Anadarko,ioos:station:wmo:42373:1,2024-05-01T00:45:00Z,27.3539,-94.6254,79.0,21.0,80.7,-9999.0,'111111111,111111111,999999991'
Anadarko,ioos:station:wmo:42373:1,2024-05-01T01:05:00Z,27.3539,-94.6254,79.0,22.2,81.2,-9999.0,'111111111,111111111,999999991'
Anadarko,ioos:station:wmo:42373:1,2024-05-01T01:25:00Z,27.3539,-94.6254,79.0,24.1,84.1,-9999.0,'111111111,111111111,999999991'
Anadarko,ioos:station:wmo:42373:1,2024-05-01T01:45:00Z,27.3539,-94.6254,79.0,24.2,86.0,-9999.0,'111111111,111111111,999999991'
Anadarko,ioos:station:wmo:42373:1,2024-05-01T02:05:00Z,27.3539,-94.6254,79.0,25.2,88.6,-9999.0,'111111111,111111111,999999991'
Anadarko,ioos:station:wmo:42373:1,2024-05-01T02:25:00Z,27.3539,-94.6254,79.0,25.2,88.4,-9999.0,'111111111,111111111,999999991'
Anadarko,ioos:station:wmo:42373:1,2024-05-01T02:45:00Z,27.3539,-94.6254,79.0,25.2,87.3,-9999.0,'111111111,111111111,999999991'
Anadarko,ioos:station:wmo:42373:1,2024-05-01T03:05:00Z,27.3539,-94.6254,79.0,25.8,90.2,-9999.0,'111111111,111111111,999999991'
Anadarko,ioos:station:wmo:42373:1,2024-05-01T03:25:00Z,27.3539,-94.6254,79.0,26.9,94.7,-9999.0,'111111111,111111111,999999991'
Anadarko,ioos:station:wmo:42373:1,2024-05-01T03:45:00Z,27.3539,-94.6254,79.0,27.3,97.8,-9999.0,'111111111,111111111,999999991'
Anadarko,ioos:station:wmo:42373:1,2024-05-01T04:05:00Z,27.3539,-94.6254,79.0,28.7,98.0,-9999.0,'111111111,111111111,999999991'
Anadarko,ioos:station:wmo:42373:1,2024-05-01T04:25:00Z,27.3539,-94.6254,79.0,29.0,97.5,-9999.0,'111111111,111111111,999999991'
Anadarko,ioos:station:wmo:42373:1,2024-05-01T04:45:00Z,27.3539,-94.6254,79.0,28.8,97.0,-9999.0,'111111111,111111111,999999991'
Anadarko,ioos:station:wmo:42373:1,2024-05-01T05:05:00Z,27.3539,-94.6254,79.0,29.4,93.1,-9999.0,'111111111,111111111,999999991'
Anadarko,ioos:station:wmo:42373:1,2024-05-01T05:25:00Z,27.3539,-94.6254,79.0,28.2,91.4,-9999.0,'111111111,111111111,999999991'
Anadarko,ioos:station:wmo:42373:1,2024-05-01T05:45:00Z,27.3539,-94.6254,79.0,29.3,91.6,-9999.0,'111111111,111111111,999999991'
Anadarko,ioos:station:wmo:42373:1,2024-05-01T06:05:00Z,27.3539,-94.6254,79.0,27.0,93.8,-9999.0,'111111111,111111111,999999991'
Anadarko,ioos:station:wmo:42373:1,2024-05-01T06:25:00Z,27.3539,-94.6254,79.0,28.2,93.9,-9999.0,'111111111,111111111,999999991'
Anadarko,ioos:station:wmo:42373:1,2024-05-01T06:45:00Z,27.3539,-94.6254,79.0,28.7,90.4,-9999.0,'111111111,111111111,999999991'
Anadarko,ioos:station:wmo:42373:1,2024-05-01T07:05:00Z,27.3539,-94.6254,79.0,29.0,92.4,-9999.0,'111111111,111111111,999999991'
Anadarko,ioos:station:wmo:42373:1,2024-05-01T07:25:00Z,27.3539,-94.6254,79.0,28.8,90.6,-9999.0,'111111111,111111111,999999991'
Anadarko,ioos:station:wmo:42373:1,2024-05-01T07:45:00Z,27.3539,-94.6254,79.0,29.9,91.3,-9999.0,'111111111,111111111,999999991'
Anadarko,ioos:station:wmo:42373:1,2024-05-01T08:05:00Z,27.3539,-94.6254,79.0,29.0,95.3,-9999.0,'111111111,111111111,999999991'
Anadarko,ioos:station:wmo:42373:1,2024-05-01T08:25:00Z,27.3539,-94.6254,79.0,29.2,97.5,-9999.0,'111111111,111111111,999999991'
Anadarko,ioos:station:wmo:42373:1,2024-05-01T08:45:00Z,27.3539,-94.6254,79.0,29.4,98.4,-9999.0,'111111111,111111111,999999991'
Anadarko,ioos:station:wmo:42373:1,2024-05-01T09:05:00Z,27.3539,-94.6254,79.0,29.5,98.8,-9999.0,'111111111,111111111,999999991'
Anadarko,ioos:station:wmo:42373:1,2024-05-01T09:25:00Z,27.3539,-94.6254,79.0,28.7,101.5,-9999.0,'111111111,111111111,999999991'
Anadarko,ioos:station:wmo:42373:1,2024-05-01T09:45:00Z,27.3539,-94.6254,79.0,28.1,103.4,-9999.0,'111111111,111111111,999999991'
Anadarko,ioos:station:wmo:42373:1,2024-05-01T10:05:00Z,27.3539,-94.6254,79.0,29.6,104.5,-9999.0,'111111111,111111111,999999991'
Anadarko,ioos:station:wmo:42373:1,2024-05-01T10:25:00Z,27.3539,-94.6254,79.0,28.0,106.6,-9999.0,'111111111,111111111,999999991'
Anadarko,ioos:station:wmo:42373:1,2024-05-01T10:45:00Z,27.3539,-94.6254,79.0,29.2,106.1,-9999.0,'111111111,111111111,999999991'
Anadarko,ioos:station:wmo:42373:1,2024-05-01T11:05:00Z,27.3539,-94.6254,79.0,27.7,108.8,-9999.0,'111111111,111111111,999999991'
Anadarko,ioos:station:wmo:42373:1,2024-05-01T11:25:00Z,27.3539,-94.6254,79.0,25.6,112.8,-9999.0,'111111111,111111111,999999991'
Anadarko,ioos:station:wmo:42373:1,2024-05-01T11:45:00Z,27.3539,-94.6254,79.0,24.9,120.7,-9999.0,'111111111,111111111,999999991'
Anadarko,ioos:station:wmo:42373:1,2024-05-01T12:05:00Z,27.3539,-94.6254,79.0,26.6,118.3,-9999.0,'111111111,111111111,999999991'
Anadarko,ioos:station:wmo:42373:1,2024-05-01T12:25:00Z,27.3539,-94.6254,79.0,24.0,112.3,-9999.0,'111111111,111111111,999999991'
Anadarko,ioos:station:wmo:42373:1,2024-05-01T12:45:00Z,27.3539,-94.6254,79.0,17.7,121.4,-9999.0,'111111111,111111111,999999991'
Anadarko,ioos:station:wmo:42373:1,2024-05-01T13:05:00Z,27.3539,-94.6254,79.0,17.3,132.4,-9999.0,'111111111,111111111,999999991'
Anadarko,ioos:station:wmo:42373:1,2024-05-01T13:25:00Z,27.3539,-94.6254,79.0,22.4,124.5,-9999.0,'111111111,111111111,999999991'
Anadarko,ioos:station:wmo:42373:1,2024-05-01T13:45:00Z,27.3539,-94.6254,79.0,20.2,120.4,-9999.0,'111111111,111111111,999999991'
Anadarko,ioos:station:wmo:42373:1,2024-05-01T14:05:00Z,27.3539,-94.6254,79.0,20.9,100.5,-9999.0,'111111111,111111111,999999991'
Anadarko,ioos:station:wmo:42373:1,2024-05-01T14:25:00Z,27.3539,-94.6254,79.0,20.2,118.3,-9999.0,'111111111,111111111,999999991'
Anadarko,ioos:station:wmo:42373:1,2024-05-01T14:45:00Z,27.3539,-94.6254,79.0,23.0,125.1,-9999.0,'111111111,111111111,999999991'
Anadarko,ioos:station:wmo:42373:1,2024-05-01T15:05:00Z,27.3539,-94.6254,79.0,19.8,105.9,-9999.0,'111111111,111111111,999999991'
Anadarko,ioos:station:wmo:42373:1,2024-05-01T15:25:00Z,27.3539,-94.6254,79.0,20.1,116.3,-9999.0,'111111111,111111111,999999991'
Anadarko,ioos:station:wmo:42373:1,2024-05-01T15:45:00Z,27.3539,-94.6254,79.0,18.4,110.7,-9999.0,'111111111,111111111,999999991'
Anadarko,ioos:station:wmo:42373:1,2024-05-01T16:05:00Z,27.3539,-94.6254,79.0,19.7,108.1,-9999.0,'111111111,111111111,999999991'
Anadarko,ioos:station:wmo:42373:1,2024-05-01T16:25:00Z,27.3539,-94.6254,79.0,18.8,111.8,-9999.0,'111111111,111111111,999999991'
Anadarko,ioos:station:wmo:42373:1,2024-05-01T16:45:00Z,27.3539,-94.6254,79.0,18.1,109.3,-9999.0,'111111111,111111111,999999991'
Anadarko,ioos:station:wmo:42373:1,2024-05-01T17:05:00Z,27.3539,-94.6254,79.0,17.5,112.5,-9999.0,'111111111,111111111,999999991'
Anadarko,ioos:station:wmo:42373:1,2024-05-01T17:25:00Z,27.3539,-94.6254,79.0,21.2,121.9,-9999.0,'111111111,111111111,999999991'
Anadarko,ioos:station:wmo:42373:1,2024-05-01T17:45:00Z,27.3539,-94.6254,79.0,21.9,111.4,-9999.0,'111111111,111111111,999999991'
Anadarko,ioos:station:wmo:42373:1,2024-05-01T18:05:00Z,27.3539,-94.6254,79.0,25.3,103.0,-9999.0,'111111111,111111111,999999991'
Anadarko,ioos:station:wmo:42373:1,2024-05-01T18:25:00Z,27.3539,-94.6254,79.0,19.3,115.1,-9999.0,'111111111,111111111,999999991'
Anadarko,ioos:station:wmo:42373:1,2024-05-01T18:45:00Z,27.3539,-94.6254,79.0,20.6,119.4,-9999.0,'111111111,111111111,999999991'
Anadarko,ioos:station:wmo:42373:1,2024-05-01T19:05:00Z,27.3539,-94.6254,79.0,22.4,128.1,-9999.0,'111111111,111111111,999999991'
Anadarko,ioos:station:wmo:42373:1,2024-05-01T19:25:00Z,27.3539,-94.6254,79.0,17.8,113.1,-9999.0,'111111111,111111111,999999991'
Anadarko,ioos:station:wmo:42373:1,2024-05-01T19:45:00Z,27.3539,-94.6254,79.0,19.7,119.4,-9999.0,'111111111,111111111,999999991'
Anadarko,ioos:station:wmo:42373:1,2024-05-01T20:05:00Z,27.3539,-94.6254,79.0,19.6,115.4,-9999.0,'111111111,111111111,999999991'
Anadarko,ioos:station:wmo:42373:1,2024-05-01T20:25:00Z,27.3539,-94.6254,79.0,19.1,112.5,-9999.0,'111111111,111111111,999999991'
Anadarko,ioos:station:wmo:42373:1,2024-05-01T20:45:00Z,27.3539,-94.6254,79.0,19.7,105.3,-9999.0,'111111111,111111111,999999991'
Anadarko,ioos:station:wmo:42373:1,2024-05-01T21:05:00Z,27.3539,-94.6254,79.0,18.2,109.5,-9999.0,'111111111,111111111,999999991'
Anadarko,ioos:station:wmo:42373:1,2024-05-01T21:25:00Z,27.3539,-94.6254,79.0,18.4,107.1,-9999.0,'111111111,111111111,999999991'
Anadarko,ioos:station:wmo:42373:1,2024-05-01T21:45:00Z,27.3539,-94.6254,79.0,19.1,104.0,-9999.0,'111111111,111111111,999999991'
Anadarko,ioos:station:wmo:42373:1,2024-05-01T22:05:00Z,27.3539,-94.6254,79.0,16.3,105.0,-9999.0,'111111111,111111111,999999991'
Anadarko,ioos:station:wmo:42373:1,2024-05-01T22:25:00Z,27.3539,-94.6254,79.0,20.4,116.4,-9999.0,'111111111,111111111,999999991'
Anadarko,ioos:station:wmo:42373:1,2024-05-01T22:45:00Z,27.3539,-94.6254,79.0,18.3,98.5,-9999.0,'111111111,111111111,999999991'
Anadarko,ioos:station:wmo:42373:1,2024-05-01T23:05:00Z,27.3539,-94.6254,79.0,17.6,92.0,-9999.0,'111111111,111111111,999999991'
Anadarko,ioos:station:wmo:42373:1,2024-05-01T23:25:00Z,27.3539,-94.6254,79.0,17.3,100.3,-9999.0,'111111111,111111111,999999991'
Anadarko,ioos:station:wmo:42373:1,2024-05-01T23:45:00Z,27.3539,-94.6254,79.0,22.5,100.0,-9999.0,'111111111,111111111,999999991'
Anadarko,ioos:station:wmo:42373:1,2024-05-02T00:05:00Z,27.3539,-94.6254,79.0,29.8,96.2,-9999.0,'111111111,111111111,999999991'
Anadarko,ioos:station:wmo:42373:1,2024-05-02T00:25:00Z,27.3539,-94.6254,79.0,36.1,148.0,-9999.0,'111111111,111111111,999999991'
Anadarko,ioos:station:wmo:42373:1,2024-05-02T00:45:00Z,27.3539,-94.6254,79.0,22.9,93.7,-9999.0,'111111111,111111111,999999991'
Anadarko,ioos:station:wmo:42373:1,2024-05-02T01:05:00Z,27.3539,-94.6254,79.0,22.2,92.8,-9999.0,'111111111,111111111,999999991'
Anadarko,ioos:station:wmo:42373:1,2024-05-02T01:25:00Z,27.3539,-94.6254,79.0,23.2,94.7,-9999.0,'111111111,111111111,999999991'
Anadarko,ioos:station:wmo:42373:1,2024-05-02T01:45:00Z,27.3539,-94.6254,79.0,21.2,95.1,-9999.0,'111111111,111111111,999999991'
Anadarko,ioos:station:wmo:42373:1,2024-05-02T02:05:00Z,27.3539,-94.6254,79.0,22.0,92.9,-9999.0,'111111111,111111111,999999991'
Anadarko,ioos:station:wmo:42373:1,2024-05-02T02:25:00Z,27.3539,-94.6254,79.0,23.8,93.1,-9999.0,'111111111,111111111,999999991'
Anadarko,ioos:station:wmo:42373:1,2024-05-02T02:45:00Z,27.3539,-94.6254,79.0,23.8,90.7,-9999.0,'111111111,111111111,999999991'
Anadarko,ioos:station:wmo:42373:1,2024-05-02T03:05:00Z,27.3539,-94.6254,79.0,24.7,90.2,-9999.0,'111111111,111111111,999999991'
Anadarko,ioos:station:wmo:42373:1,2024-05-02T03:25:00Z,27.3539,-94.6254,79.0,26.5,90.0,-9999.0,'111111111,111111111,999999991'
Anadarko,ioos:station:wmo:42373:1,2024-05-02T03:45:00Z,27.3539,-94.6254,79.0,26.4,90.4,-9999.0,'111111111,111111111,999999991'
Anadarko,ioos:station:wmo:42373:1,2024-05-02T04:05:00Z,27.3539,-94.6254,79.0,25.1,90.9,-9999.0,'111111111,111111111,999999991'
Anadarko,ioos:station:wmo:42373:1,2024-05-02T04:25:00Z,27.3539,-94.6254,79.0,25.0,90.5,-9999.0,'111111111,111111111,999999991'
Anadarko,ioos:station:wmo:42373:1,2024-05-02T04:45:00Z,27.3539,-94.6254,79.0,24.7,89.8,-9999.0,'111111111,111111111,999999991'
Anadarko,ioos:station:wmo:42373:1,2024-05-02T05:05:00Z,27.3539,-94.6254,79.0,25.3,88.2,-9999.0,'111111111,111111111,999999991'
Anadarko,ioos:station:wmo:42373:1,2024-05-02T05:25:00Z,27.3539,-94.6254,79.0,25.3,88.2,-9999.0,'111111111,111111111,999999991'
Anadarko,ioos:station:wmo:42373:1,2024-05-02T05:45:00Z,27.3539,-94.6254,79.0,26.2,88.3,-9999.0,'111111111,111111111,999999991'
Anadarko,ioos:station:wmo:42373:1,2024-05-02T06:05:00Z,27.3539,-94.6254,79.0,26.7,87.9,-9999.0,'111111111,111111111,999999991'
Anadarko,ioos:station:wmo:42373:1,2024-05-02T06:25:00Z,27.3539,-94.6254,79.0,28.3,87.0,-9999.0,'111111111,111111111,999999991'
Anadarko,ioos:station:wmo:42373:1,2024-05-02T06:45:00Z,27.3539,-94.6254,79.0,28.5,90.4,-9999.0,'111111111,111111111,999999991'
Anadarko,ioos:station:wmo:42373:1,2024-05-02T07:05:00Z,27.3539,-94.6254,79.0,27.6,89.6,-9999.0,'111111111,111111111,999999991'
Anadarko,ioos:station:wmo:42373:1,2024-05-02T07:25:00Z,27.3539,-94.6254,79.0,27.5,88.8,-9999.0,'111111111,111111111,999999991'
Anadarko,ioos:station:wmo:42373:1,2024-05-02T07:45:00Z,27.3539,-94.6254,79.0,28.7,90.4,-9999.0,'111111111,111111111,999999991'
Anadarko,ioos:station:wmo:42373:1,2024-05-02T08:05:00Z,27.3539,-94.6254,79.0,29.1,89.0,-9999.0,'111111111,111111111,999999991'
Anadarko,ioos:station:wmo:42373:1,2024-05-02T08:25:00Z,27.3539,-94.6254,79.0,32.2,93.7,-9999.0,'111111111,111111111,999999991'
Anadarko,ioos:station:wmo:42373:1,2024-05-02T08:45:00Z,27.3539,-94.6254,79.0,34.2,102.0,-9999.0,'111111111,111111111,999999991'
Anadarko,ioos:station:wmo:42373:1,2024-05-02T09:05:00Z,27.3539,-94.6254,79.0,33.4,106.2,-9999.0,'111111111,111111111,999999991'
Anadarko,ioos:station:wmo:42373:1,2024-05-02T09:25:00Z,27.3539,-94.6254,79.0,33.5,105.9,-9999.0,'111111111,111111111,999999991'
Anadarko,ioos:station:wmo:42373:1,2024-05-02T09:45:00Z,27.3539,-94.6254,79.0,33.4,107.6,-9999.0,'111111111,111111111,999999991'
Anadarko,ioos:station:wmo:42373:1,2024-05-02T10:05:00Z,27.3539,-94.6254,79.0,34.9,107.9,-9999.0,'111111111,111111111,999999991'
Anadarko,ioos:station:wmo:42373:1,2024-05-02T10:25:00Z,27.3539,-94.6254,79.0,35.5,107.2,-9999.0,'111111111,111111111,999999991'
Anadarko,ioos:station:wmo:42373:1,2024-05-02T10:45:00Z,27.3539,-94.6254,79.0,36.4,108.2,-9999.0,'111111111,111111111,999999991'
Anadarko,ioos:station:wmo:42373:1,2024-05-02T11:05:00Z,27.3539,-94.6254,79.0,36.1,111.4,-9999.0,'111111111,111111111,999999991'
Anadarko,ioos:station:wmo:42373:1,2024-05-02T11:25:00Z,27.3539,-94.6254,79.0,35.7,114.3,-9999.0,'111111111,111111111,999999991'
Anadarko,ioos:station:wmo:42373:1,2024-05-02T11:45:00Z,27.3539,-94.6254,79.0,34.8,115.7,-9999.0,'111111111,111111111,999999991'
Anadarko,ioos:station:wmo:42373:1,2024-05-02T12:05:00Z,27.3539,-94.6254,79.0,29.6,120.9,-9999.0,'111111111,111111111,999999991'
Anadarko,ioos:station:wmo:42373:1,2024-05-02T12:25:00Z,27.3539,-94.6254,79.0,31.4,117.5,-9999.0,'111111111,111111111,999999991'
Anadarko,ioos:station:wmo:42373:1,2024-05-02T12:45:00Z,27.3539,-94.6254,79.0,32.7,116.5,-9999.0,'111111111,111111111,999999991'
Anadarko,ioos:station:wmo:42373:1,2024-05-02T13:05:00Z,27.3539,-94.6254,79.0,30.7,119.9,-9999.0,'111111111,111111111,999999991'
Anadarko,ioos:station:wmo:42373:1,2024-05-02T13:25:00Z,27.3539,-94.6254,79.0,37.9,105.1,-9999.0,'111111111,111111111,999999991'
Anadarko,ioos:station:wmo:42373:1,2024-05-02T13:45:00Z,27.3539,-94.6254,79.0,28.2,126.3,-9999.0,'111111111,111111111,999999991'
Anadarko,ioos:station:wmo:42373:1,2024-05-02T14:05:00Z,27.3539,-94.6254,79.0,25.5,133.3,-9999.0,'111111111,111111111,999999991'
Anadarko,ioos:station:wmo:42373:1,2024-05-02T14:25:00Z,27.3539,-94.6254,79.0,57.5,86.9,-9999.0,'111111111,111111111,999999991'
Anadarko,ioos:station:wmo:42373:1,2024-05-02T14:45:00Z,27.3539,-94.6254,79.0,32.0,110.3,-9999.0,'111111111,111111111,999999991'
Anadarko,ioos:station:wmo:42373:1,2024-05-02T15:05:00Z,27.3539,-94.6254,79.0,26.4,117.2,-9999.0,'111111111,111111111,999999991'
Anadarko,ioos:station:wmo:42373:1,2024-05-02T15:25:00Z,27.3539,-94.6254,79.0,24.7,111.4,-9999.0,'111111111,111111111,999999991'
Anadarko,ioos:station:wmo:42373:1,2024-05-02T15:45:00Z,27.3539,-94.6254,79.0,37.0,97.3,-9999.0,'111111111,111111111,999999991'
Anadarko,ioos:station:wmo:42373:1,2024-05-02T16:05:00Z,27.3539,-94.6254,79.0,28.0,117.5,-9999.0,'111111111,111111111,999999991'
Anadarko,ioos:station:wmo:42373:1,2024-05-02T16:25:00Z,27.3539,-94.6254,79.0,21.6,105.0,-9999.0,'111111111,111111111,999999991'
Anadarko,ioos:station:wmo:42373:1,2024-05-02T16:45:00Z,27.3539,-94.6254,79.0,22.9,101.6,-9999.0,'111111111,111111111,999999991'
Anadarko,ioos:station:wmo:42373:1,2024-05-02T17:05:00Z,27.3539,-94.6254,79.0,26.4,101.6,-9999.0,'111111111,111111111,999999991'
Anadarko,ioos:station:wmo:42373:1,2024-05-02T17:25:00Z,27.3539,-94.6254,79.0,22.1,98.9,-9999.0,'111111111,111111111,999999991'
Anadarko,ioos:station:wmo:42373:1,2024-05-02T17:45:00Z,27.3539,-94.6254,79.0,20.5,101.8,-9999.0,'111111111,111111111,999999991'
Anadarko,ioos:station:wmo:42373:1,2024-05-02T18:05:00Z,27.3539,-94.6254,79.0,17.4,103.6,-9999.0,'111111111,111111111,999999991'
Anadarko,ioos:station:wmo:42373:1,2024-05-02T18:25:00Z,27.3539,-94.6254,79.0,19.0,108.1,-9999.0,'111111111,111111111,999999991'
Anadarko,ioos:station:wmo:42373:1,2024-05-02T18:45:00Z,27.3539,-94.6254,79.0,19.4,109.0,-9999.0,'111111111,111111111,999999991'
Anadarko,ioos:station:wmo:42373:1,2024-05-02T19:05:00Z,27.3539,-94.6254,79.0,19.1,114.1,-9999.0,'111111111,111111111,999999991'
Anadarko,ioos:station:wmo:42373:1,2024-05-02T19:25:00Z,27.3539,-94.6254,79.0,22.0,111.1,-9999.0,'111111111,111111111,999999991'
Anadarko,ioos:station:wmo:42373:1,2024-05-02T19:45:00Z,27.3539,-94.6254,79.0,23.7,112.9,-9999.0,'111111111,111111111,999999991'
Anadarko,ioos:station:wmo:42373:1,2024-05-02T20:05:00Z,27.3539,-94.6254,79.0,18.0,122.5,-9999.0,'111111111,111111111,999999991'
Anadarko,ioos:station:wmo:42373:1,2024-05-02T20:25:00Z,27.3539,-94.6254,79.0,25.3,120.6,-9999.0,'111111111,111111111,999999991'
Anadarko,ioos:station:wmo:42373:1,2024-05-02T20:45:00Z,27.3539,-94.6254,79.0,21.2,131.9,-9999.0,'111111111,111111111,999999991'
Anadarko,ioos:station:wmo:42373:1,2024-05-02T21:05:00Z,27.3539,-94.6254,79.0,20.3,134.4,-9999.0,'111111111,111111111,999999991'
Anadarko,ioos:station:wmo:42373:1,2024-05-02T21:25:00Z,27.3539,-94.6254,79.0,20.5,129.7,-9999.0,'111111111,111111111,999999991'
Anadarko,ioos:station:wmo:42373:1,2024-05-02T21:45:00Z,27.3539,-94.6254,79.0,19.8,129.9,-9999.0,'111111111,111111111,999999991'
Anadarko,ioos:station:wmo:42373:1,2024-05-02T22:05:00Z,27.3539,-94.6254,79.0,22.4,121.1,-9999.0,'111111111,111111111,999999991'
Anadarko,ioos:station:wmo:42373:1,2024-05-02T22:25:00Z,27.3539,-94.6254,79.0,21.3,118.4,-9999.0,'111111111,111111111,999999991'
Anadarko,ioos:station:wmo:42373:1,2024-05-02T22:45:00Z,27.3539,-94.6254,79.0,17.6,122.0,-9999.0,'111111111,111111111,999999991'
Anadarko,ioos:station:wmo:42373:1,2024-05-02T23:05:00Z,27.3539,-94.6254,79.0,18.4,117.5,-9999.0,'111111111,111111111,999999991'
Anadarko,ioos:station:wmo:42373:1,2024-05-02T23:25:00Z,27.3539,-94.6254,79.0,18.5,115.3,-9999.0,'111111111,111111111,999999991'
Anadarko,ioos:station:wmo:42373:1,2024-05-02T23:45:00Z,27.3539,-94.6254,79.0,19.2,115.2,-9999.0,'111111111,111111111,999999991'
Anadarko,ioos:station:wmo:42373:1,2024-05-03T00:05:00Z,27.3539,-94.6254,79.0,22.0,106.9,-9999.0,'111111111,111111111,999999991'
Anadarko,ioos:station:wmo:42373:1,2024-05-03T00:25:00Z,27.3539,-94.6254,79.0,24.6,102.9,-9999.0,'111111111,111111111,999999991'
Anadarko,ioos:station:wmo:42373:1,2024-05-03T00:45:00Z,27.3539,-94.6254,79.0,21.4,99.4,-9999.0,'111111111,111111111,999999991'
Anadarko,ioos:station:wmo:42373:1,2024-05-03T01:05:00Z,27.3539,-94.6254,79.0,21.6,99.1,-9999.0,'111111111,111111111,999999991'
Anadarko,ioos:station:wmo:42373:1,2024-05-03T01:25:00Z,27.3539,-94.6254,79.0,23.0,100.5,-9999.0,'111111111,111111111,999999991'
Anadarko,ioos:station:wmo:42373:1,2024-05-03T01:45:00Z,27.3539,-94.6254,79.0,24.1,97.6,-9999.0,'111111111,111111111,999999991'
Anadarko,ioos:station:wmo:42373:1,2024-05-03T02:05:00Z,27.3539,-94.6254,79.0,23.4,95.9,-9999.0,'111111111,111111111,999999991'
Anadarko,ioos:station:wmo:42373:1,2024-05-03T02:25:00Z,27.3539,-94.6254,79.0,23.3,92.0,-9999.0,'111111111,111111111,999999991'
Anadarko,ioos:station:wmo:42373:1,2024-05-03T02:45:00Z,27.3539,-94.6254,79.0,26.5,88.9,-9999.0,'111111111,111111111,999999991'
Anadarko,ioos:station:wmo:42373:1,2024-05-03T03:05:00Z,27.3539,-94.6254,79.0,26.1,86.0,-9999.0,'111111111,111111111,999999991'
Anadarko,ioos:station:wmo:42373:1,2024-05-03T03:25:00Z,27.3539,-94.6254,79.0,28.5,85.4,-9999.0,'111111111,111111111,999999991'
Anadarko,ioos:station:wmo:42373:1,2024-05-03T03:45:00Z,27.3539,-94.6254,79.0,28.5,85.2,-9999.0,'111111111,111111111,999999991'
Anadarko,ioos:station:wmo:42373:1,2024-05-03T04:05:00Z,27.3539,-94.6254,79.0,30.1,85.0,-9999.0,'111111111,111111111,999999991'
Anadarko,ioos:station:wmo:42373:1,2024-05-03T04:25:00Z,27.3539,-94.6254,79.0,32.4,85.2,-9999.0,'111111111,111111111,999999991'
Anadarko,ioos:station:wmo:42373:1,2024-05-03T04:45:00Z,27.3539,-94.6254,79.0,33.4,88.3,-9999.0,'111111111,111111111,999999991'
Anadarko,ioos:station:wmo:42373:1,2024-05-03T05:05:00Z,27.3539,-94.6254,79.0,33.5,89.5,-9999.0,'111111111,111111111,999999991'
Anadarko,ioos:station:wmo:42373:1,2024-05-03T05:25:00Z,27.3539,-94.6254,79.0,33.4,92.4,-9999.0,'111111111,111111111,999999991'
Anadarko,ioos:station:wmo:42373:1,2024-05-03T05:45:00Z,27.3539,-94.6254,79.0,32.8,93.1,-9999.0,'111111111,111111111,999999991'
Anadarko,ioos:station:wmo:42373:1,2024-05-03T06:05:00Z,27.3539,-94.6254,79.0,33.1,95.7,-9999.0,'111111111,111111111,999999991'
Anadarko,ioos:station:wmo:42373:1,2024-05-03T06:25:00Z,27.3539,-94.6254,79.0,33.1,98.7,-9999.0,'111111111,111111111,999999991'
Anadarko,ioos:station:wmo:42373:1,2024-05-03T06:45:00Z,27.3539,-94.6254,79.0,32.8,100.7,-9999.0,'111111111,111111111,999999991'
Anadarko,ioos:station:wmo:42373:1,2024-05-03T07:05:00Z,27.3539,-94.6254,79.0,35.1,98.0,-9999.0,'111111111,111111111,999999991'
Anadarko,ioos:station:wmo:42373:1,2024-05-03T07:25:00Z,27.3539,-94.6254,79.0,36.4,100.1,-9999.0,'111111111,111111111,999999991'
Anadarko,ioos:station:wmo:42373:1,2024-05-03T07:45:00Z,27.3539,-94.6254,79.0,35.5,102.0,-9999.0,'111111111,111111111,999999991'
Anadarko,ioos:station:wmo:42373:1,2024-05-03T08:05:00Z,27.3539,-94.6254,79.0,34.9,102.4,-9999.0,'111111111,111111111,999999991'
Anadarko,ioos:station:wmo:42373:1,2024-05-03T08:25:00Z,27.3539,-94.6254,79.0,34.1,105.8,-9999.0,'111111111,111111111,999999991'
Anadarko,ioos:station:wmo:42373:1,2024-05-03T08:45:00Z,27.3539,-94.6254,79.0,34.3,106.3,-9999.0,'111111111,111111111,999999991'
Anadarko,ioos:station:wmo:42373:1,2024-05-03T09:05:00Z,27.3539,-94.6254,79.0,34.0,109.1,-9999.0,'111111111,111111111,999999991'
Anadarko,ioos:station:wmo:42373:1,2024-05-03T09:25:00Z,27.3539,-94.6254,79.0,33.9,109.7,-9999.0,'111111111,111111111,999999991'
Anadarko,ioos:station:wmo:42373:1,2024-05-03T09:45:00Z,27.3539,-94.6254,79.0,34.2,108.4,-9999.0,'111111111,111111111,999999991'
Anadarko,ioos:station:wmo:42373:1,2024-05-03T10:05:00Z,27.3539,-94.6254,79.0,32.7,109.3,-9999.0,'111111111,111111111,999999991'
Anadarko,ioos:station:wmo:42373:1,2024-05-03T10:25:00Z,27.3539,-94.6254,79.0,33.6,106.4,-9999.0,'111111111,111111111,999999991'
Anadarko,ioos:station:wmo:42373:1,2024-05-03T10:45:00Z,27.3539,-94.6254,79.0,33.8,105.1,-9999.0,'111111111,111111111,999999991'
Anadarko,ioos:station:wmo:42373:1,2024-05-03T11:05:00Z,27.3539,-94.6254,79.0,32.4,104.3,-9999.0,'111111111,111111111,999999991'
Anadarko,ioos:station:wmo:42373:1,2024-05-03T11:25:00Z,27.3539,-94.6254,79.0,35.2,104.6,-9999.0,'111111111,111111111,999999991'
Anadarko,ioos:station:wmo:42373:1,2024-05-03T11:45:00Z,27.3539,-94.6254,79.0,37.1,103.7,-9999.0,'111111111,111111111,999999991'
Anadarko,ioos:station:wmo:42373:1,2024-05-03T12:05:00Z,27.3539,-94.6254,79.0,41.5,104.2,-9999.0,'111111111,111111111,999999991'
Anadarko,ioos:station:wmo:42373:1,2024-05-03T12:25:00Z,27.3539,-94.6254,79.0,40.1,107.4,-9999.0,'111111111,111111111,999999991'
Anadarko,ioos:station:wmo:42373:1,2024-05-03T12:45:00Z,27.3539,-94.6254,79.0,40.7,107.0,-9999.0,'111111111,111111111,999999991'
Anadarko,ioos:station:wmo:42373:1,2024-05-03T13:05:00Z,27.3539,-94.6254,79.0,40.7,106.7,-9999.0,'111111111,111111111,999999991'
Anadarko,ioos:station:wmo:42373:1,2024-05-03T13:25:00Z,27.3539,-94.6254,79.0,41.1,105.8,-9999.0,'111111111,111111111,999999991'